TimeEDT,TemperatureF,Dew PointF,Humidity,Sea Level PressureIn,VisibilityMPH,Wind Direction,Wind SpeedMPH,Gust SpeedMPH,PrecipitationIn,Events,Conditions,WindDirDegrees,DateUTC
12:54 AM,33.1,16.0,50,30.09,10.0,NW,4.6,-,N/A,,Clear,320,2007-04-09 04:54:00
1:54 AM,36.0,16.0,44,30.06,10.0,NNW,4.6,-,N/A,,Clear,340,2007-04-09 05:54:00
2:54 AM,35.1,16.0,46,30.06,10.0,NW,3.5,-,N/A,,Clear,320,2007-04-09 06:54:00
3:54 AM,34.0,17.1,50,30.06,10.0,Variable,4.6,-,N/A,,Clear,0,2007-04-09 07:54:00
4:54 AM,34.0,18.0,52,30.06,10.0,Variable,4.6,-,N/A,,Overcast,0,2007-04-09 08:54:00
5:54 AM,32.0,17.1,54,30.08,10.0,NNW,6.9,-,N/A,,Overcast,330,2007-04-09 09:54:00
6:54 AM,33.1,17.1,52,30.10,10.0,Calm,Calm,-,N/A,,Overcast,0,2007-04-09 10:54:00
7:54 AM,30.9,19.9,64,30.13,10.0,Calm,Calm,-,N/A,,Partly Cloudy,0,2007-04-09 11:54:00
8:54 AM,34.0,21.0,59,30.13,10.0,NNW,4.6,-,N/A,,Mostly Cloudy,330,2007-04-09 12:54:00
9:54 AM,37.9,16.0,41,30.14,10.0,Variable,4.6,-,N/A,,Mostly Cloudy,0,2007-04-09 13:54:00
10:54 AM,39.9,15.1,36,30.12,10.0,Variable,6.9,-,N/A,,Mostly Cloudy,0,2007-04-09 14:54:00
11:54 AM,41.0,15.1,35,30.11,10.0,Variable,3.5,-,N/A,,Partly Cloudy,0,2007-04-09 15:54:00
12:54 PM,44.1,16.0,32,30.08,10.0,Variable,5.8,-,N/A,,Clear,0,2007-04-09 16:54:00
1:54 PM,45.0,17.1,33,30.05,10.0,Variable,3.5,-,N/A,,Clear,0,2007-04-09 17:54:00
2:54 PM,48.0,16.0,28,30.01,10.0,ENE,8.1,-,N/A,,Partly Cloudy,70,2007-04-09 18:54:00
3:54 PM,48.9,15.1,26,29.99,10.0,West,4.6,-,N/A,,Mostly Cloudy,260,2007-04-09 19:54:00
4:54 PM,48.9,12.9,24,29.98,10.0,NNW,3.5,-,N/A,,Overcast,330,2007-04-09 20:54:00
5:54 PM,48.9,16.0,27,29.96,10.0,Calm,Calm,-,N/A,,Partly Cloudy,0,2007-04-09 21:54:00
6:54 PM,48.9,17.1,28,29.96,10.0,South,4.6,-,N/A,,Overcast,170,2007-04-09 22:54:00
7:54 PM,46.0,16.0,30,29.99,10.0,NW,10.4,-,N/A,,Partly Cloudy,320,2007-04-09 23:54:00
8:54 PM,42.1,19.9,41,30.01,10.0,West,4.6,-,N/A,,Clear,260,2007-04-10 00:54:00
9:54 PM,41.0,17.1,38,30.04,10.0,NNW,3.5,-,N/A,,Clear,330,2007-04-10 01:54:00
10:54 PM,36.0,21.0,55,30.05,10.0,Calm,Calm,-,N/A,,Clear,0,2007-04-10 02:54:00
11:54 PM,33.1,19.9,59,30.04,10.0,Calm,Calm,-,N/A,,Clear,0,2007-04-10 03:54:00